Regional Weather Roundup
Issued by NWS

Home | Current Version | Previous Version | Text Only | Print | Product List | Glossary On
Versions: 1 2 3 4 5 6 7 8 9 10 11 12 13 14 15 16 17 18 19 20 21 22 23 24 25 26 27 28 29 30 31 32 33 34 35 36 37 38 39 40 41 42 43 44 45 46 47 48 49 50
000
ASUS44 KBMX 291610
RWRAL

ALABAMA REGIONAL WEATHER ROUNDUP
NATIONAL WEATHER SERVICE BIRMINGHAM AL
1100 AM CDT FRI APR 29 2016

NOTE: "FAIR" INDICATES FEW OR NO CLOUDS BELOW 12,000 FEET
WITH NO SIGNIFICANT WEATHER AND/OR OBSTRUCTIONS TO VISIBILITY.

THE REMARK "TC" DENOTES TEMPERATURE IN DEGREES CELSIUS.

ALZ001>011-014-016>018-020-291700-
NORTH ALABAMA

CITY           SKY/WX    TMP DP  RH WIND       PRES   REMARKS
MUSCLE SHOALS  CLOUDY    79  54  41 SE14      30.00F
HUNTSVILLE     CLOUDY    79  52  38 E13       30.02S
DECATUR        CLOUDY    78  50  37 SE10      30.03R
HALEYVILLE     FAIR      77  58  51 VRB7      30.03S
GADSDEN        CLOUDY    79  57  46 NE9       30.04F
$$

ALZ012-013-022-023-030>036-040>044-291700-
WEST CENTRAL ALABAMA

CITY           SKY/WX    TMP DP  RH WIND       PRES   REMARKS
TUSCALOOSA     CLOUDY    82  65  56 VRB7      29.98F
$$

ALZ015-024>027-033>036-040>044-291700-
CENTRAL ALABAMA

CITY           SKY/WX    TMP DP  RH WIND       PRES   REMARKS
BIRMINGHAM     CLOUDY    81  54  39 SE13      30.04R
MONTGOMERY     SUNNY     83  67  58 VRB6      30.00S
SHELBY CO ARPT CLOUDY    80  61  52 VRB6      30.02R
MAXWELL AFB    SUNNY     80  70  71 VRB1      29.99F
GREENVILLE     FAIR      81  68  64 E8        29.99S
$$

ALZ019-021-028-029-037-038-045>048-291700-
EAST CENTRAL ALABAMA

CITY           SKY/WX    TMP DP  RH WIND       PRES   REMARKS
ANNISTON       CLOUDY    81  54  39 NE7       30.03F
ALEXANDER CITY CLOUDY    79  65  63 E8        30.02F
AUBURN         SUNNY     82  61  48 VRB3      30.03F
$$

ALZ051>064-291700-
SOUTHWEST ALABAMA

CITY           SKY/WX    TMP DP  RH WIND       PRES   REMARKS
MOBILE         MOSUNNY   83  66  56 SE16      29.99R
BROOKLEY FIELD PTSUNNY   80  71  74 S10G17    29.99S
EVERGREEN      MOSUNNY   82  67  60 VRB5      30.00S
$$

ALZ049-050-065>069-291700-
SOUTHEAST ALABAMA

CITY           SKY/WX    TMP DP  RH WIND       PRES   REMARKS
DOTHAN         SUNNY     83  65  54 VRB6      30.03F
OZARK          MOSUNNY   82  69  64 SE7       30.00S
TROY           SUNNY     83  68  60 VRB5      30.02S
EUFAULA        FAIR      84  65  52 VRB5      30.00S
$$



USA.gov is the U.S. government's official web portal to all federal, state and local government web resources and services.